Theta_e
307 307 310 313 316 319 321 320 318 320 322 322 323 321 318 321 323 320 319 329 344 345 342 344 340 340 344 347 348 347 347 349 350 348 351 353 347 344 347 347 344 342 344 343 341 339 336 334 334 334 333 334 335 336 337 338 339 338 338 339 338 337 335 333 332 332 332 332 331 331 331 331 331 331 331 330 330 331 332 332 331 332 333 333 331 329 326 321 316 315 315 313 312 313 314 314 315
309 310 313 318 318 320 320 319 321 323 322 321 320 321 321 321 322 321 320 332 346 344 344 343 341 343 344 345 346 347 349 348 348 348 351 350 347 347 348 347 344 342 343 342 340 338 336 334 333 333 333 333 334 335 336 337 338 338 339 339 339 339 337 335 334 333 333 332 332 331 331 332 331 332 331 331 331 332 333 333 333 333 333 333 332 331 330 329 324 318 316 314 311 313 314 313 313
313 313 315 318 319 318 318 319 323 322 321 320 317 320 322 320 320 322 321 334 345 345 345 344 344 346 346 351 352 351 351 349 349 349 351 350 348 348 349 346 343 342 342 341 340 337 336 334 334 333 333 333 333 335 336 338 338 338 339 339 339 340 339 337 337 335 335 333 331 330 330 331 332 332 331 332 332 331 332 333 334 333 334 333 332 331 331 333 331 324 318 316 313 313 316 315 313
312 315 316 317 317 317 318 321 327 323 321 319 316 321 323 320 320 321 323 338 346 345 345 344 347 345 349 356 353 349 350 349 350 351 352 351 349 349 349 346 343 343 341 341 340 338 337 334 334 333 333 332 333 335 336 337 337 338 339 339 339 339 339 338 337 336 335 333 331 330 330 331 331 330 330 331 331 331 331 331 333 334 334 334 333 332 333 333 331 329 324 319 313 315 323 321 315
312 316 316 317 317 317 318 320 325 323 320 320 319 322 325 319 318 320 326 339 342 342 343 345 349 346 347 350 348 348 350 350 350 350 351 351 349 350 350 345 344 342 341 341 339 338 337 335 334 333 333 332 332 334 336 337 337 337 338 338 338 337 337 336 336 334 333 332 330 329 329 328 328 328 328 327 328 329 329 329 331 332 333 333 333 332 333 332 330 331 329 324 315 315 324 321 316
315 316 316 316 316 315 318 320 321 321 318 320 321 323 323 317 317 320 327 338 338 340 344 345 348 347 347 348 348 348 348 349 350 350 349 350 350 350 349 345 343 341 340 340 338 337 336 335 335 333 332 332 333 334 334 336 336 337 338 337 337 336 334 334 333 332 331 329 327 326 326 325 325 325 325 325 325 325 326 326 327 329 330 331 331 331 332 331 330 330 330 328 319 317 321 318 318
315 315 316 317 316 315 320 323 322 323 320 318 319 321 320 318 318 316 322 337 342 342 345 345 345 348 350 348 349 348 348 348 348 349 348 349 350 349 347 344 342 340 339 338 337 337 336 336 335 333 332 332 333 333 334 335 336 337 337 337 335 333 333 332 331 330 328 326 324 324 323 324 324 326 327 327 326 326 325 325 325 326 327 328 329 330 330 330 330 329 329 329 323 319 322 321 321
315 315 315 317 319 316 319 322 321 321 321 318 316 317 318 317 316 315 318 332 344 344 345 345 344 350 351 347 350 350 349 348 346 348 348 349 349 347 346 343 341 339 339 337 336 337 337 336 334 333 332 332 333 332 333 335 335 335 336 335 333 331 332 331 329 329 326 323 323 323 324 325 326 329 329 329 328 327 326 326 325 325 326 327 328 329 328 329 329 329 329 329 325 320 323 325 324
315 315 313 318 320 318 319 319 316 317 319 318 316 315 316 315 316 316 317 332 342 343 345 345 343 350 351 348 351 350 349 349 347 348 348 349 348 345 344 341 340 339 337 336 337 338 337 336 333 333 333 333 332 332 332 333 333 333 334 333 331 331 331 331 329 327 324 323 323 324 325 327 329 330 330 330 329 328 327 327 326 326 326 327 328 328 329 328 328 328 328 328 325 321 322 326 326
315 314 313 317 319 318 320 319 318 319 318 317 315 315 315 315 317 314 319 339 345 345 346 343 345 349 350 349 350 350 350 350 348 348 349 348 346 344 343 341 340 339 337 336 337 337 337 335 332 332 333 332 331 331 330 329 330 331 332 331 329 330 332 330 328 326 324 324 325 325 327 328 330 331 331 330 329 328 327 326 324 324 325 327 327 327 327 326 326 325 324 323 323 321 322 324 326
315 313 313 317 318 317 318 319 320 320 317 315 314 315 316 314 314 317 327 341 344 346 346 344 347 348 348 348 349 350 350 350 348 348 348 347 345 344 342 340 339 338 336 336 338 338 337 334 332 332 331 330 330 330 329 328 328 329 331 330 328 330 332 330 328 327 326 326 326 326 327 330 332 332 332 331 329 328 326 324 323 323 324 325 326 326 326 324 324 322 320 317 318 322 321 322 327
315 314 316 319 318 317 317 318 318 319 317 316 317 316 317 314 317 331 339 343 345 345 344 344 348 347 348 349 348 350 350 349 348 347 346 345 344 343 341 340 339 338 336 337 338 337 336 333 331 332 331 331 332 331 331 329 329 329 330 328 329 332 332 329 328 328 327 327 326 326 328 330 332 332 332 331 329 327 324 323 323 323 323 324 325 326 326 325 325 323 320 315 313 321 321 320 326
315 315 318 320 319 318 316 316 317 320 320 318 317 315 317 314 318 334 339 341 344 344 342 342 345 345 347 348 348 349 349 349 347 346 345 343 343 341 341 340 338 338 337 338 338 336 335 333 332 333 333 333 334 333 332 330 329 329 328 327 329 331 330 329 328 328 328 328 327 328 329 330 331 332 331 330 329 326 324 323 323 323 323 322 323 325 327 326 324 323 323 319 313 317 321 319 325
315 314 317 318 317 316 315 316 316 316 319 317 315 314 317 315 317 328 334 341 341 340 342 343 343 346 347 348 348 348 348 348 347 345 345 344 342 341 341 340 339 338 338 339 338 336 334 332 333 333 333 334 334 334 333 330 329 328 327 327 329 329 328 328 329 328 328 329 329 329 330 330 330 330 329 330 329 327 325 324 323 322 322 321 320 322 323 323 321 322 323 322 315 314 320 318 324
314 313 316 317 316 316 313 314 314 313 317 317 314 314 315 316 321 326 333 343 343 341 344 344 342 347 350 348 347 347 347 348 347 346 346 344 343 341 341 340 339 339 338 339 339 337 334 333 332 333 333 334 334 334 333 331 329 329 328 328 327 328 329 329 329 329 329 330 330 330 330 330 329 329 329 329 328 327 325 325 324 323 323 321 320 319 319 318 318 321 322 322 317 313 318 318 322
315 314 315 315 316 316 313 314 315 314 316 316 314 314 316 319 324 328 331 337 343 344 343 343 342 342 346 346 345 347 347 346 347 346 346 345 343 341 342 341 340 339 339 339 338 336 334 333 332 332 333 333 334 334 334 332 331 330 330 330 328 330 330 330 331 330 330 330 330 330 330 330 329 329 329 329 328 328 326 326 325 324 324 322 321 319 317 316 316 321 322 322 318 314 318 318 320
315 314 314 315 315 315 316 317 315 315 316 315 314 313 316 321 328 334 334 336 342 343 339 341 341 337 340 342 343 346 346 345 346 347 345 344 343 342 342 341 340 340 339 338 337 337 334 332 332 331 332 332 333 333 334 333 332 331 332 334 333 332 332 331 332 331 331 330 329 328 329 330 330 329 329 329 329 328 327 326 326 325 324 323 321 319 318 317 316 320 323 322 318 316 319 318 318
314 315 316 315 314 314 318 319 315 314 315 315 314 314 314 317 328 335 338 338 339 340 338 339 342 340 341 343 345 347 345 344 346 346 345 344 343 342 342 341 341 340 339 338 337 337 334 331 331 330 331 332 333 333 333 333 333 332 333 335 335 334 333 332 331 329 330 328 327 327 327 329 331 330 328 328 329 328 327 325 325 325 323 322 321 319 319 318 316 320 324 322 319 318 320 317 317
314 316 316 315 315 314 315 317 315 314 315 315 314 314 315 314 321 331 341 340 338 342 342 341 343 343 344 346 347 348 346 346 347 346 345 343 342 342 341 341 340 338 335 335 336 336 334 332 331 331 331 331 332 334 334 334 333 333 333 335 335 333 333 333 331 329 330 329 327 327 327 328 330 329 327 329 329 327 327 325 322 322 321 320 321 320 320 319 318 320 324 321 318 320 321 317 318
313 313 315 316 316 315 313 314 314 314 314 314 314 314 315 315 316 328 340 339 339 344 343 342 343 344 345 346 348 348 347 347 346 345 343 342 342 341 341 340 339 337 334 334 335 336 334 332 331 331 331 331 333 335 336 334 334 334 334 334 333 331 332 332 331 328 329 329 328 328 328 328 329 328 327 328 327 324 326 325 321 322 323 321 321 321 320 320 320 321 324 321 318 321 322 318 318
312 312 315 315 313 314 314 313 314 314 314 313 314 314 314 315 318 330 338 340 342 341 340 341 342 344 345 346 348 347 347 347 345 343 341 342 341 341 341 340 339 338 335 335 336 336 335 331 330 331 331 334 335 335 334 335 334 334 333 333 331 330 332 332 331 328 327 330 329 328 328 328 329 327 326 327 326 324 325 326 323 322 324 324 323 322 321 321 319 320 323 320 318 322 323 318 318
312 311 312 313 310 312 314 314 314 314 315 313 312 314 315 315 320 331 336 340 342 338 336 337 338 342 344 346 346 347 346 346 344 342 341 341 341 342 342 341 340 336 334 336 336 336 334 330 331 332 332 335 336 331 330 333 334 334 333 330 328 328 331 331 330 329 328 330 329 328 328 329 329 327 326 326 327 325 323 325 325 323 324 324 324 323 322 322 319 320 323 319 320 323 323 321 318
314 313 311 311 311 312 313 313 314 315 314 312 313 314 316 315 318 326 329 332 331 328 334 336 337 340 343 345 345 346 346 344 343 342 341 341 341 342 341 341 339 337 336 336 336 337 334 333 334 333 333 336 335 327 325 328 330 333 331 326 324 326 328 327 329 330 329 329 328 329 329 329 329 326 326 326 327 326 323 324 325 325 324 323 325 325 325 324 321 322 322 320 323 324 324 323 319
312 313 312 312 312 311 313 313 313 314 314 313 314 314 315 315 315 320 324 326 323 326 334 338 341 343 343 344 344 345 345 344 343 342 341 340 341 341 339 337 337 338 338 337 336 336 335 335 334 334 334 334 332 326 325 327 327 329 328 324 323 326 327 326 329 332 331 330 328 329 329 329 328 325 324 326 327 326 324 325 325 325 325 325 325 326 326 323 322 324 323 322 326 326 325 325 323
311 312 311 311 311 312 313 313 312 313 314 314 314 313 314 314 315 323 330 330 330 332 336 339 342 342 341 340 341 343 343 343 342 341 340 340 340 339 338 336 337 338 338 338 335 332 332 333 334 335 334 333 332 327 325 328 327 326 326 324 324 326 328 329 330 332 331 331 328 327 328 329 328 325 323 325 327 324 323 324 324 325 326 326 326 325 325 324 324 324 322 323 327 328 327 327 326
311 311 310 310 311 312 312 312 312 313 314 314 313 314 314 315 320 329 335 336 337 337 337 340 341 340 339 338 339 341 341 341 341 341 340 340 339 338 338 339 339 339 339 338 333 330 333 334 334 335 334 333 331 326 327 330 329 327 326 326 326 328 330 330 331 332 332 331 330 329 328 329 330 326 323 324 324 323 323 324 324 326 328 326 327 326 326 326 325 323 320 323 327 328 327 329 328
311 311 311 311 311 311 311 311 312 312 313 314 314 315 314 318 325 329 335 339 340 339 338 339 339 338 337 337 337 338 340 341 341 340 340 338 338 337 338 339 337 337 339 337 334 333 334 334 335 335 334 333 331 330 330 330 331 329 326 325 325 327 329 329 329 330 331 332 331 331 329 329 330 327 323 324 323 323 325 325 325 326 327 327 327 328 328 328 326 323 321 324 327 327 327 328 329
312 313 312 312 311 310 311 311 313 313 314 314 313 314 312 315 323 325 332 339 340 338 338 337 337 336 336 337 337 338 340 341 340 339 339 336 335 336 336 337 336 337 337 334 336 338 335 334 335 334 334 334 335 334 330 328 330 331 330 329 327 327 329 328 328 329 328 331 330 329 328 328 329 325 322 324 325 324 325 327 326 325 327 327 328 328 328 329 328 325 323 325 327 326 327 327 328
313 313 314 315 313 312 312 312 313 313 315 313 312 313 313 315 317 320 332 339 339 337 336 336 335 335 335 337 337 339 340 340 339 337 337 334 332 333 334 335 336 335 333 330 333 338 339 337 334 335 337 338 338 335 333 332 332 332 333 333 331 329 329 327 328 329 329 329 328 327 327 327 329 326 322 325 326 324 326 328 326 326 327 328 329 328 328 329 329 328 326 326 326 326 327 328 328
314 312 312 314 315 315 313 311 313 313 314 314 313 313 318 320 312 318 336 339 338 336 335 334 334 334 334 336 338 339 340 337 337 335 335 333 331 333 334 336 336 332 329 328 329 332 338 340 336 336 338 337 336 335 334 334 331 332 333 332 331 329 329 328 328 329 328 328 328 327 327 326 328 327 322 324 326 325 327 328 326 326 326 328 328 328 328 328 329 330 329 327 327 326 327 329 329
314 312 314 314 312 317 315 311 313 313 313 314 313 313 317 318 312 322 338 338 337 334 333 333 332 334 334 337 339 338 337 334 335 334 334 332 330 334 335 336 336 331 328 330 328 327 332 339 335 332 333 332 334 333 332 332 330 331 331 330 329 328 328 327 327 327 327 327 328 329 328 327 327 326 323 324 325 326 328 328 327 326 326 327 328 327 327 328 328 329 330 329 328 328 328 329 329
316 312 319 321 312 315 317 312 313 314 313 313 313 314 316 315 314 327 338 335 336 333 331 332 331 332 333 335 337 336 335 333 335 335 333 332 332 335 336 335 332 328 327 328 326 323 329 336 334 330 331 330 329 329 327 328 329 330 330 329 328 327 326 326 326 327 326 326 327 329 329 328 327 325 323 325 327 327 328 327 327 328 327 328 328 328 327 327 328 328 329 330 329 329 329 328 328
325 315 319 324 316 314 315 312 312 312 313 313 313 315 316 316 314 324 337 335 334 332 330 331 329 330 330 331 333 333 333 334 336 335 334 335 334 336 337 332 328 329 329 327 325 325 331 335 333 330 330 325 322 323 324 327 329 330 329 328 326 326 326 325 326 328 328 328 326 328 330 329 327 324 324 327 327 327 328 325 325 328 329 329 329 328 328 328 328 328 328 329 328 328 328 329 328
328 323 320 322 317 313 314 315 312 310 312 312 313 314 315 318 313 319 334 334 332 331 330 329 329 329 328 329 329 330 332 334 337 335 334 337 337 337 337 331 327 332 332 329 329 331 332 332 329 325 322 319 319 321 325 329 331 329 327 325 324 325 325 325 326 328 329 329 326 327 329 330 327 323 324 326 325 327 329 325 323 326 327 328 329 328 328 328 328 329 328 327 327 327 328 328 327
321 322 321 320 319 315 314 316 314 313 313 312 313 313 315 317 313 317 330 333 331 331 329 329 329 327 328 327 327 328 330 333 337 335 334 336 337 338 338 334 331 332 332 332 334 334 333 328 325 322 318 318 320 321 323 325 326 326 323 323 323 324 324 324 326 327 328 328 326 325 327 328 325 323 323 324 322 325 329 328 326 327 327 328 328 327 327 328 329 329 328 327 326 327 327 326 326
317 316 316 318 319 317 315 315 315 314 314 313 313 315 315 314 314 318 327 331 330 330 329 328 328 328 327 327 326 326 328 333 337 335 335 335 336 338 338 337 334 333 333 335 336 335 334 327 323 324 319 319 320 320 319 318 319 321 321 322 323 324 322 322 323 323 326 328 326 324 324 324 323 322 322 322 322 326 329 329 328 328 328 328 327 326 327 328 329 329 328 327 327 327 327 326 326
314 315 317 317 317 316 315 315 315 314 314 314 313 313 314 316 318 318 323 330 328 327 328 329 328 328 327 327 325 324 328 333 334 335 335 333 335 337 337 337 336 335 335 336 335 335 333 325 319 321 318 319 319 317 316 315 316 320 322 323 322 322 321 320 320 318 323 328 326 325 325 324 324 323 323 324 325 327 328 328 327 327 326 326 326 326 328 328 328 328 328 328 327 327 327 327 326
315 316 317 316 317 317 315 316 316 314 313 314 314 314 313 320 324 318 318 327 328 325 327 329 329 328 328 327 325 325 328 331 332 334 334 332 335 336 335 336 337 336 336 336 335 335 333 323 316 317 317 318 318 316 315 316 318 320 321 322 322 321 321 320 318 314 318 325 325 325 326 326 325 325 324 325 326 326 325 325 325 325 324 324 324 324 326 326 327 327 327 327 328 327 327 327 325
318 317 316 316 317 316 316 320 322 318 314 315 316 315 318 327 329 321 318 322 325 325 328 330 329 329 329 328 326 326 329 330 332 333 333 332 334 334 334 336 336 336 336 336 335 335 332 321 314 316 317 317 316 316 317 317 320 320 320 321 321 321 322 322 318 314 316 323 326 325 326 327 326 326 325 326 325 324 323 323 323 322 321 321 322 321 323 325 326 327 327 327 328 327 327 326 325
320 317 313 316 316 314 316 321 325 323 319 318 322 323 328 333 328 322 316 315 321 324 328 330 329 329 329 328 329 329 330 330 331 331 331 332 333 332 333 334 336 336 335 335 334 333 329 319 315 316 316 316 316 318 319 319 320 321 321 321 321 321 321 322 320 318 320 322 323 324 325 325 323 322 322 323 323 322 322 321 321 320 320 320 322 322 323 324 326 327 327 327 327 328 328 327 326
328 324 315 317 318 315 315 319 326 332 326 324 330 331 331 332 328 325 318 315 321 324 327 330 329 329 329 329 329 331 332 331 330 331 331 332 332 331 331 333 335 336 335 335 333 331 325 318 316 316 316 316 318 319 320 321 320 321 322 321 321 321 321 321 319 320 322 322 322 323 323 322 318 315 315 316 317 319 320 319 319 319 318 320 322 323 323 324 325 325 326 327 327 327 327 327 327
327 330 322 319 318 317 317 321 327 332 327 321 323 322 325 331 330 328 326 321 321 323 326 329 329 329 329 329 329 329 330 330 329 331 330 331 331 330 331 333 334 335 335 333 331 330 325 317 316 316 316 316 318 320 320 320 321 321 321 320 319 319 320 321 316 314 318 320 320 321 319 318 316 314 315 316 317 319 320 320 319 318 318 319 320 321 322 322 322 324 325 326 326 326 326 326 326
319 326 329 321 317 318 319 322 323 323 323 320 322 324 328 335 330 324 327 322 318 323 326 328 328 328 329 329 329 329 328 328 329 330 330 330 330 330 330 331 333 333 333 333 331 330 324 317 316 316 315 317 317 319 321 321 322 321 320 319 318 317 319 317 311 308 310 312 314 315 314 315 315 316 317 319 320 320 320 319 318 317 318 320 320 320 320 320 321 322 324 324 324 325 325 325 325
319 325 328 321 317 318 320 325 322 320 323 323 330 331 323 331 331 322 324 319 315 321 325 327 326 326 328 328 327 329 330 329 329 330 330 330 331 329 328 328 331 332 332 331 330 328 323 317 317 316 316 318 317 317 320 322 322 321 321 320 319 319 319 314 307 307 307 307 308 310 313 315 316 316 317 319 319 319 319 319 317 317 319 321 320 319 319 319 321 322 322 322 322 322 322 322 322
323 326 322 318 318 320 326 330 325 321 319 321 335 329 315 330 339 325 321 318 316 320 322 325 325 325 326 327 327 328 330 330 329 330 331 330 330 330 328 329 330 332 332 330 329 328 324 319 318 318 318 320 317 315 318 321 322 321 320 320 320 320 318 311 307 308 307 306 306 307 311 313 314 315 316 317 318 319 318 317 317 317 319 320 319 319 318 317 320 322 322 321 321 320 320 320 320
322 320 318 318 320 325 328 329 327 326 320 320 332 326 315 330 344 332 320 316 321 326 321 318 321 325 326 326 327 327 328 329 329 330 330 330 330 330 329 330 330 331 331 330 329 328 326 323 322 319 319 321 319 316 317 319 321 321 320 319 320 319 315 308 307 308 307 307 306 306 308 311 312 313 314 316 317 317 317 315 315 315 317 318 317 318 317 316 318 320 321 320 320 320 319 319 321
316 316 318 319 322 328 332 332 331 326 322 324 330 326 316 323 337 336 323 316 319 325 322 316 316 323 326 325 326 326 327 328 328 329 329 329 329 329 330 330 330 331 330 330 330 329 328 327 325 322 322 325 322 316 314 318 320 321 320 318 317 317 312 308 308 308 307 307 306 305 306 307 309 311 313 315 315 315 314 313 313 313 314 315 314 315 316 317 318 318 319 319 319 319 317 318 320
315 318 320 318 320 325 328 331 328 322 323 326 329 324 316 319 329 330 327 324 321 320 322 320 316 319 325 326 325 325 325 326 327 327 327 328 329 329 330 330 331 331 330 330 330 329 328 328 327 326 325 325 323 319 317 319 321 322 321 317 315 314 310 308 309 308 308 307 305 305 305 305 306 307 310 312 312 311 310 309 309 308 308 308 308 308 309 311 312 313 315 317 317 315 315 317 318
317 320 320 318 319 320 323 325 323 323 324 323 326 322 316 323 330 324 325 327 320 316 317 317 315 317 323 325 324 325 324 325 325 325 326 327 328 329 330 330 331 331 331 331 330 329 330 330 328 325 324 322 320 321 320 320 321 322 320 316 313 312 311 309 308 308 308 307 305 305 304 305 305 305 307 308 308 308 306 306 306 306 306 305 305 305 305 305 306 306 308 309 310 309 310 311 311
315 319 320 319 318 318 321 322 318 321 321 320 323 320 319 327 326 321 324 321 314 313 313 314 316 319 324 325 324 324 324 324 324 324 324 325 326 328 329 329 329 329 329 329 328 329 330 331 327 324 325 322 318 318 318 319 320 321 319 316 313 313 313 312 310 308 308 307 305 305 304 305 305 305 306 306 306 306 305 306 306 306 306 306 305 306 305 305 305 305 305 305 305 306 306 306 305
315 317 317 318 322 321 320 321 319 319 321 321 319 317 322 325 319 318 319 314 312 315 316 318 320 322 325 325 324 325 324 324 324 323 323 323 323 324 325 325 326 326 326 326 327 327 328 329 327 326 326 321 317 318 320 321 320 320 319 316 315 314 314 316 314 310 309 307 305 305 305 305 305 305 305 306 306 306 306 306 306 306 306 306 306 306 306 306 306 306 305 305 305 305 305 305 305
312 313 314 315 321 325 321 316 322 325 322 321 318 319 328 324 315 317 315 313 315 317 318 319 319 321 323 323 324 323 324 324 324 324 323 322 323 322 322 322 323 324 324 325 325 326 327 326 326 327 326 321 317 318 320 320 320 319 318 315 316 316 313 316 317 312 308 307 305 306 306 305 306 306 306 306 306 306 306 306 306 306 306 306 306 306 306 306 306 305 305 305 305 304 305 305 304
314 311 314 315 315 324 323 314 320 325 322 322 318 319 327 322 316 318 316 318 320 317 318 318 318 321 321 321 323 323 323 323 323 324 324 324 324 322 323 323 322 323 323 323 324 324 325 326 326 328 328 324 318 317 319 320 317 316 316 316 317 317 313 314 318 315 309 307 306 306 306 306 306 306 307 307 307 307 307 307 306 306 306 306 306 306 306 306 305 305 305 305 305 305 305 305 304
316 313 314 315 311 319 325 320 321 319 318 325 321 315 320 319 318 321 318 318 319 318 319 317 316 320 320 320 322 323 324 324 323 325 325 325 324 322 323 323 322 323 322 323 323 323 323 325 326 328 329 325 319 318 320 319 315 313 314 315 315 316 315 313 315 316 311 307 307 307 307 307 307 307 307 308 308 309 309 308 308 308 307 307 307 307 306 306 306 306 306 306 306 306 306 306 306
313 313 312 313 315 318 319 318 321 317 316 322 319 316 317 315 318 322 319 317 317 316 319 318 316 317 317 319 320 320 321 322 322 323 322 322 321 321 321 322 322 322 322 322 322 323 323 323 325 328 329 327 323 320 319 317 315 314 313 314 315 316 316 315 315 317 314 309 308 308 307 308 308 307 307 308 309 309 310 310 310 310 310 309 309 309 308 308 307 307 307 307 307 308 307 308 307
312 313 312 315 321 321 315 315 320 319 317 317 318 319 320 319 319 320 318 319 319 317 319 320 317 315 316 318 319 319 319 319 320 320 320 319 319 319 320 321 321 322 323 324 325 325 324 323 324 327 328 328 326 324 323 320 318 317 314 314 316 317 317 316 316 317 316 311 309 309 309 309 310 309 308 308 309 309 309 309 310 310 310 310 310 309 309 309 308 308 308 308 308 308 308 308 308
312 316 317 314 313 314 314 313 314 320 322 322 321 318 318 323 322 317 317 318 317 318 320 319 315 315 317 317 319 320 320 319 319 319 319 319 319 321 322 321 322 322 322 324 326 327 326 324 324 325 326 327 326 325 324 322 320 319 317 316 317 317 316 318 318 317 317 314 310 311 313 313 313 313 312 311 311 311 310 310 311 311 312 311 312 311 311 310 310 309 309 309 309 309 308 308 308
310 314 314 312 311 313 316 313 312 319 323 323 322 318 321 326 319 315 317 315 313 315 317 317 315 316 317 317 319 320 320 320 320 320 320 320 321 323 322 323 323 322 322 322 324 326 326 325 325 325 325 325 325 325 324 322 321 321 320 318 318 317 316 317 318 318 317 316 313 312 314 315 315 315 315 314 314 314 314 314 314 315 315 315 315 315 314 313 313 313 313 313 313 313 312 311 310
Wind_Speed
6 7 9 11 12 9 5 5 2 2 2 1 4 1 4 5 3 3 4 2 1 4 2 8 12 13 10 9 11 10 10 3 4 3 3 9 23 28 26 24 24 28 29 28 27 27 27 25 25 23 22 21 21 21 21 21 20 19 18 18 18 18 19 19 18 17 16 15 15 15 14 13 12 12 12 12 12 12 12 11 11 10 10 9 7 6 5 5 6 7 9 9 9 10 10 10 10
8 8 11 11 9 7 4 4 1 2 3 2 4 3 4 4 2 5 7 2 4 4 12 20 20 17 14 14 10 8 10 7 2 6 10 20 27 27 25 24 25 28 29 28 28 28 27 26 25 23 22 21 21 21 21 21 20 19 18 17 18 18 18 18 17 16 15 14 13 13 13 12 11 11 11 11 10 11 10 10 10 10 9 9 8 7 6 6 6 6 9 9 9 10 11 11 11
8 8 9 8 6 5 4 3 1 1 3 2 4 3 3 3 4 6 6 7 14 17 21 21 16 12 9 7 6 4 4 5 8 15 20 25 28 29 25 25 27 27 29 29 28 28 27 26 25 24 23 21 21 21 21 21 20 19 17 17 17 17 17 17 16 15 14 13 12 12 12 11 11 10 10 9 9 8 9 9 10 10 9 8 8 8 8 7 7 7 9 8 8 10 11 11 12
5 6 7 6 5 4 4 2 2 4 2 4 4 5 4 3 4 5 4 9 23 21 14 11 8 6 6 7 8 8 5 6 12 20 25 25 26 30 27 27 28 28 29 28 27 27 26 26 25 23 22 21 21 20 21 21 20 18 17 16 16 16 16 15 14 14 13 13 12 12 11 11 10 10 9 9 8 7 7 7 8 9 9 8 7 8 8 8 7 6 8 7 7 9 11 12 12
4 7 6 5 4 1 2 1 2 3 4 4 2 5 5 4 3 6 3 7 17 12 5 6 6 6 10 10 5 6 9 12 15 20 26 25 24 28 28 28 28 29 29 27 26 26 26 26 24 23 22 21 20 20 20 20 20 18 17 16 15 15 15 15 14 13 13 13 13 12 11 11 10 10 9 9 8 7 6 5 5 6 7 7 7 8 7 6 7 5 5 6 6 8 11 12 13
5 7 5 3 2 0 2 1 2 3 5 4 2 6 7 5 5 3 3 5 9 7 4 3 10 10 9 7 4 11 15 13 18 21 25 26 24 26 28 29 29 30 30 28 27 26 27 26 24 22 21 20 20 19 19 19 19 19 18 16 15 15 15 14 14 14 14 14 14 14 13 12 12 11 10 10 9 8 6 5 5 4 5 6 5 6 6 4 5 3 2 4 5 7 11 13 14
4 5 3 2 1 1 3 3 4 5 5 4 4 6 9 8 9 6 1 3 3 3 3 8 18 14 5 4 6 11 9 9 20 22 23 25 24 26 28 30 30 31 30 29 27 27 27 26 24 22 21 20 19 19 19 19 19 19 18 16 15 14 15 14 14 14 15 16 16 16 15 14 14 13 12 12 11 10 8 7 6 5 5 4 4 4 5 4 4 3 1 3 5 6 12 14 14
4 4 3 3 1 1 2 3 4 4 4 4 5 7 12 15 13 6 2 3 4 5 9 14 17 11 1 3 5 6 7 10 18 20 23 24 25 28 29 30 31 32 31 29 28 28 27 25 24 22 22 20 19 18 18 19 19 19 18 16 15 14 14 14 14 15 16 17 18 17 16 15 14 13 12 12 11 11 10 9 7 6 5 4 4 5 5 5 5 4 2 3 4 4 11 14 15
4 4 2 2 1 1 1 3 4 3 5 6 5 10 17 21 17 6 3 4 4 10 9 7 7 7 5 6 6 7 11 13 16 20 23 23 26 29 29 30 30 31 30 29 28 28 26 25 24 22 21 20 19 18 18 19 19 19 18 17 15 15 14 14 14 15 16 17 17 16 15 14 13 12 11 10 10 10 9 8 8 7 6 5 5 5 5 5 5 4 3 3 3 4 10 14 15
3 3 2 2 2 1 3 3 3 3 5 5 7 16 21 22 18 7 5 4 6 9 6 5 6 10 10 8 6 7 11 14 17 21 23 23 26 27 28 28 28 28 29 29 28 27 26 24 23 22 21 20 19 19 19 19 20 19 18 17 16 15 15 14 14 15 16 16 16 15 13 12 11 10 9 9 9 9 8 7 7 7 7 6 6 6 6 5 4 3 3 3 3 5 9 14 15
2 2 3 3 3 1 4 3 4 4 6 5 10 20 20 16 11 5 4 5 6 9 11 9 9 14 12 5 4 8 14 16 18 21 23 23 23 24 25 26 26 25 28 29 28 27 26 24 23 22 21 21 20 20 20 20 20 20 19 17 17 16 15 14 14 14 14 14 15 14 12 10 9 8 7 7 7 7 6 6 6 6 6 7 6 6 6 5 3 2 2 3 4 6 9 14 16
1 0 4 4 2 3 4 2 4 6 7 5 7 18 17 8 4 7 8 8 9 9 9 8 11 15 9 2 6 14 19 18 17 20 23 22 21 22 23 25 25 25 27 27 27 27 26 25 23 22 22 22 21 21 21 20 20 20 20 19 18 16 15 14 14 14 13 13 13 12 10 9 7 6 6 6 6 5 5 5 4 4 5 5 5 6 6 4 3 2 2 3 5 8 9 14 17
2 2 5 2 3 3 2 2 4 5 6 5 5 15 17 4 5 12 12 9 11 8 3 10 21 17 7 4 11 19 22 21 19 20 22 22 21 21 22 24 25 26 26 26 27 26 26 26 23 22 22 22 22 21 21 20 21 21 20 19 18 16 15 14 14 13 12 12 11 10 9 8 6 5 5 5 4 4 4 3 3 4 4 4 4 5 5 4 2 1 2 3 6 9 10 14 19
3 2 4 1 1 3 2 2 2 2 4 6 4 16 17 4 5 13 14 9 4 4 6 17 25 14 6 6 10 20 23 23 23 21 22 21 21 22 22 24 25 26 26 26 26 26 26 26 23 23 23 23 22 22 22 21 21 21 20 19 18 17 16 15 14 13 12 12 11 10 9 7 6 5 4 3 3 2 2 2 2 3 3 3 3 4 4 3 3 2 2 3 6 9 11 15 20
3 1 3 1 2 1 1 3 2 2 4 5 9 18 15 4 7 12 12 8 1 9 16 19 20 8 11 13 11 25 26 25 27 23 22 21 21 21 22 24 24 26 25 26 26 26 26 25 24 23 24 24 23 23 22 21 21 20 20 18 18 17 16 15 14 14 14 13 12 11 10 8 7 6 4 3 1 1 1 1 1 1 2 2 3 3 3 3 3 3 3 3 6 9 12 15 22
3 2 3 1 2 1 2 3 2 1 4 6 12 16 9 5 6 5 3 9 11 18 15 15 17 4 19 24 19 32 28 26 27 23 23 21 21 20 22 24 25 26 25 26 27 27 26 25 25 24 25 24 24 24 23 22 20 20 19 18 18 17 16 15 14 14 13 12 12 11 10 10 9 7 5 3 2 1 1 1 1 1 2 2 3 3 2 3 3 4 4 3 5 9 12 15 22
4 1 3 2 3 2 2 3 2 1 5 8 14 15 5 6 9 9 5 14 20 18 7 11 15 6 20 22 19 34 29 27 28 25 25 23 23 22 23 25 26 27 26 28 27 27 26 26 26 25 26 25 24 24 23 22 20 20 20 18 18 16 15 14 12 10 9 9 9 8 8 9 8 8 6 4 3 3 2 2 3 3 3 3 3 3 3 3 4 4 4 4 6 10 13 15 21
3 2 2 3 3 3 4 5 3 2 4 7 12 13 4 3 6 9 8 12 15 11 4 8 9 5 18 17 21 34 29 31 30 28 29 26 26 25 25 26 27 28 27 29 27 27 27 26 26 25 25 24 24 23 22 22 20 19 19 17 15 14 13 12 9 6 6 8 8 8 7 6 7 8 6 5 4 3 4 3 4 3 3 4 4 3 3 3 4 5 5 5 7 11 13 15 21
5 3 2 4 4 5 6 7 4 3 6 9 13 14 4 2 1 8 5 5 8 7 5 8 10 12 17 18 27 32 30 33 31 31 30 28 28 26 27 27 28 27 26 27 27 28 27 26 25 23 24 23 22 21 22 21 18 18 17 15 13 12 11 10 8 6 7 7 7 8 7 6 7 7 6 5 4 4 6 5 5 4 4 5 5 4 3 4 5 6 6 6 9 12 13 14 21
6 4 2 5 5 4 8 11 11 11 10 8 12 14 5 4 1 6 4 4 3 4 7 9 13 20 23 25 30 31 32 33 31 32 29 28 27 25 27 28 30 27 23 24 26 27 26 26 24 23 23 22 21 20 20 19 17 16 14 13 12 12 10 8 8 7 7 6 6 7 8 6 6 6 6 6 5 6 8 6 6 6 7 7 6 6 4 4 5 7 7 8 10 12 12 13 20
4 5 4 5 4 3 12 15 15 16 12 8 11 13 8 5 1 8 10 6 3 7 16 17 21 29 30 30 31 32 34 33 33 31 28 28 26 25 25 25 26 24 23 25 27 27 26 25 23 22 21 21 21 18 17 17 16 15 13 12 12 11 9 8 8 8 7 6 6 6 8 7 6 7 6 6 6 7 9 8 8 8 9 8 8 6 5 5 5 7 7 10 12 13 12 12 19
2 4 7 8 4 3 14 14 10 13 11 10 9 9 9 5 3 14 14 7 5 11 20 24 28 33 34 35 34 35 34 33 32 29 28 27 26 26 25 23 22 23 26 28 28 27 25 24 21 20 20 21 19 16 16 17 14 13 12 12 11 11 10 9 8 8 6 7 7 6 7 8 7 8 6 6 5 7 10 10 9 9 10 9 8 7 5 5 5 6 8 11 13 13 13 12 17
3 5 7 11 8 6 15 15 9 12 10 6 4 5 8 6 1 11 16 10 9 12 19 24 27 31 36 38 38 37 35 34 32 29 27 25 25 26 26 25 25 26 28 28 28 24 22 21 20 21 21 21 18 15 15 16 15 14 12 11 10 10 9 9 8 8 7 6 7 6 6 7 8 9 8 7 7 8 10 10 9 9 10 9 8 7 5 6 6 7 9 13 14 13 13 13 16
5 5 5 13 13 12 21 21 16 16 12 11 7 5 6 4 3 4 9 10 12 12 17 25 28 32 36 38 38 38 36 34 31 27 25 22 22 24 24 24 26 27 27 26 24 21 22 23 22 22 22 20 18 16 15 14 15 13 12 11 9 9 9 8 8 8 7 6 6 7 6 7 8 8 8 8 9 9 9 10 9 10 10 10 9 8 7 7 8 8 11 14 13 12 13 14 16
5 6 7 10 13 16 24 23 20 20 18 20 13 6 9 8 4 3 5 8 6 10 18 25 29 33 35 36 37 37 35 33 30 26 24 22 20 22 22 23 26 27 26 25 24 24 25 25 23 22 21 19 17 15 14 13 13 11 11 11 9 9 8 8 8 7 7 7 8 8 7 8 8 9 9 9 10 10 10 10 10 9 9 9 9 9 9 9 9 9 12 15 12 11 12 13 16
6 10 9 7 12 19 21 17 16 16 16 17 9 6 13 8 3 2 4 3 5 13 21 26 29 32 33 34 35 36 36 33 30 27 25 24 22 22 21 22 22 22 24 25 26 26 25 25 24 22 19 16 14 12 12 14 13 10 10 10 10 9 8 8 9 9 9 10 11 10 9 10 10 10 10 10 10 9 10 10 9 9 9 10 9 9 9 9 9 10 13 15 12 11 11 12 14
4 7 9 10 17 20 16 13 14 11 11 12 8 7 11 6 5 3 3 6 12 19 23 26 29 30 32 34 35 35 34 31 29 27 25 24 23 22 20 19 15 12 18 24 25 24 23 24 23 20 18 16 15 14 12 12 12 10 8 8 9 8 8 7 7 9 10 11 12 12 11 11 12 11 11 11 10 9 10 9 8 9 10 10 10 9 10 9 10 11 14 15 13 11 12 13 13
10 9 8 11 14 15 11 9 11 8 5 9 9 6 5 3 4 6 10 13 17 22 25 26 28 28 30 33 34 33 32 30 27 26 26 24 22 22 20 18 14 8 12 19 22 22 21 21 20 18 17 17 18 17 14 12 10 10 9 9 7 7 7 5 5 7 9 11 13 13 13 12 13 12 12 13 12 11 11 9 10 11 11 11 11 11 11 11 11 13 15 14 13 12 11 12 11
11 6 4 8 7 7 8 6 7 6 3 5 5 2 5 2 5 8 14 19 19 22 23 24 26 27 28 31 32 32 30 28 27 27 26 24 22 22 19 17 15 12 12 13 15 20 21 19 17 15 16 17 16 14 13 11 10 10 10 8 6 6 6 5 6 7 8 10 12 13 13 13 13 13 13 14 14 13 12 11 10 11 13 13 13 13 12 12 11 13 15 15 15 14 11 10 10
7 2 1 4 7 5 6 3 4 5 4 5 5 2 7 6 8 8 18 24 22 22 21 22 24 26 28 30 31 31 29 28 27 26 25 25 24 22 18 16 17 15 14 14 12 15 18 18 16 15 16 14 12 10 9 9 8 8 7 6 5 4 4 5 7 8 8 9 11 13 14 14 15 14 13 15 15 13 12 11 10 12 14 14 13 13 12 12 12 12 14 15 15 15 13 11 11
3 2 2 2 2 5 7 3 1 1 4 7 7 3 7 7 7 10 23 28 26 24 20 21 24 26 29 31 32 30 28 26 26 25 24 25 24 21 18 17 19 18 16 17 15 12 13 16 14 14 16 14 11 9 7 7 6 5 5 5 4 3 4 6 8 10 10 9 10 12 13 14 15 15 14 16 16 13 11 11 11 12 13 12 12 12 11 11 12 12 13 14 14 13 13 12 13
3 1 3 3 1 5 9 6 4 4 4 5 8 2 6 7 5 17 26 26 27 25 21 22 23 26 28 30 31 30 27 25 24 23 23 24 23 21 19 18 20 20 19 18 17 14 13 14 13 15 16 14 12 10 8 7 5 4 3 2 1 1 2 5 6 8 9 9 10 11 12 13 15 16 16 16 15 13 11 11 12 12 12 11 11 11 11 11 11 12 11 12 12 12 12 12 13
3 1 3 4 1 3 6 6 5 8 4 1 5 4 4 5 3 17 26 25 25 23 21 22 23 25 27 28 30 29 27 25 25 24 24 25 23 21 20 18 19 19 20 19 16 16 16 16 15 15 14 12 10 8 6 5 4 3 2 1 1 1 2 2 4 6 7 9 11 11 11 12 14 15 15 15 13 12 12 12 13 12 11 11 12 12 11 11 12 11 11 11 11 11 12 12 12
4 2 1 3 2 2 3 6 5 6 6 3 5 4 6 5 1 11 24 25 24 23 22 22 22 23 25 27 29 29 28 27 28 26 25 26 23 22 22 19 18 19 20 20 17 16 16 16 15 14 13 11 9 7 6 6 5 4 3 2 2 1 2 1 2 4 6 8 10 10 10 11 13 13 13 14 13 12 13 12 12 12 11 11 11 11 11 12 12 12 11 11 10 11 12 12 11
3 1 1 3 3 2 4 5 5 2 2 4 4 4 10 8 2 10 22 24 24 23 24 23 22 24 25 27 28 29 30 30 29 27 26 26 24 23 23 20 20 21 21 21 19 18 16 14 14 13 13 11 10 8 7 7 6 6 5 4 3 2 1 2 1 2 4 7 8 9 9 11 12 12 12 13 13 14 15 13 12 13 12 11 9 9 10 11 11 12 12 12 11 11 12 12 12
5 3 3 3 5 5 5 7 6 4 5 4 6 6 10 8 1 8 19 23 21 18 20 21 22 24 25 26 29 31 32 32 29 26 27 26 25 25 24 22 22 23 24 24 23 21 17 14 14 14 13 13 12 10 8 7 7 7 6 5 4 3 1 1 1 1 2 6 8 9 9 10 10 9 10 12 13 14 13 11 10 10 10 9 8 9 11 12 12 13 13 13 12 12 13 14 14
3 2 3 4 4 6 6 7 7 4 5 4 7 8 7 5 2 7 17 19 13 13 16 19 22 24 25 27 30 33 34 33 29 28 29 27 25 26 24 24 24 25 27 26 25 23 18 15 16 16 16 15 13 11 10 8 8 8 9 8 6 4 1 1 1 0 3 6 8 9 10 10 9 9 10 12 12 12 10 8 7 8 8 8 9 10 11 13 13 13 14 14 13 13 14 15 15
3 3 4 4 3 6 7 6 8 2 4 2 2 6 6 6 2 3 13 14 10 14 18 20 23 24 25 28 32 35 35 33 31 30 30 28 27 26 25 26 27 28 30 30 27 24 19 17 19 20 20 17 14 12 12 10 9 8 9 9 7 4 2 1 3 1 3 6 7 8 10 10 10 10 11 11 12 10 8 7 7 7 7 7 8 9 10 11 12 12 13 13 14 14 14 14 14
3 3 2 3 3 5 7 5 6 4 2 3 2 7 6 7 1 2 8 13 16 22 24 26 29 25 25 30 33 35 35 33 33 33 32 30 30 29 27 27 28 29 32 32 28 24 20 19 22 23 21 18 15 14 13 12 10 9 7 7 6 4 2 2 2 2 3 7 7 8 8 9 10 10 10 10 10 8 6 5 6 5 5 5 6 7 9 10 11 11 11 11 12 13 13 13 13
2 3 2 3 4 2 4 6 7 5 1 2 4 5 4 6 2 2 6 10 15 23 26 26 30 32 33 38 38 38 37 36 36 36 34 32 33 32 30 30 31 32 34 33 29 24 20 22 25 24 22 19 16 16 15 13 12 11 8 7 6 3 3 3 1 2 5 7 7 7 7 7 8 8 8 9 8 6 5 5 5 5 5 5 5 6 7 8 9 9 9 9 9 10 11 11 11
3 5 4 3 4 3 4 5 7 6 4 3 6 4 4 6 4 3 1 2 7 17 21 21 26 30 30 34 38 40 40 40 39 38 35 34 35 34 32 32 33 35 35 32 28 23 20 24 26 24 22 19 17 17 18 15 13 12 10 9 8 5 4 4 4 6 9 9 9 8 8 8 8 8 8 7 6 6 6 5 4 4 4 5 5 5 5 5 6 8 8 8 9 9 9 10 11
4 4 7 7 5 5 5 4 5 5 5 3 4 4 4 5 4 6 3 4 5 9 14 18 25 25 23 28 33 36 38 39 40 38 36 36 35 34 32 33 34 35 33 30 26 21 20 25 27 25 22 21 19 18 19 17 14 12 10 8 7 6 6 4 3 6 9 10 10 10 10 9 8 8 7 6 6 6 6 5 3 2 3 4 4 4 4 4 4 6 7 8 8 8 8 9 10
2 5 7 6 4 2 4 3 4 2 1 3 2 4 3 5 2 6 5 4 6 6 6 12 21 24 25 29 31 33 36 37 39 38 37 37 35 33 32 33 34 34 32 29 25 21 20 25 28 26 24 22 21 19 18 18 16 14 10 6 4 5 5 5 4 5 7 8 9 9 9 9 8 7 7 7 7 8 6 5 3 1 2 3 3 4 4 3 3 3 4 5 5 5 5 5 6
3 6 5 6 4 2 3 4 5 1 2 3 4 5 3 3 4 6 5 3 4 5 5 7 15 22 25 27 29 33 38 40 41 40 38 36 35 34 33 33 34 34 32 30 27 24 23 25 27 27 26 24 23 21 18 18 18 15 12 10 8 6 6 5 7 7 6 6 7 8 9 10 10 9 8 6 6 7 6 4 3 2 3 3 3 4 3 2 2 2 2 2 1 1 2 3 3
6 6 5 5 4 3 2 6 4 1 2 3 6 4 2 4 5 5 3 2 1 4 7 8 14 21 24 26 29 33 38 40 41 40 38 35 33 34 34 34 35 35 33 31 29 27 25 26 27 28 28 26 25 24 19 18 18 15 12 11 11 9 8 6 9 8 6 5 5 7 8 9 10 9 8 7 6 5 4 2 2 3 5 4 4 3 3 3 4 4 4 5 5 3 1 1 1
4 5 5 3 4 4 4 5 3 3 4 2 6 2 1 4 6 5 2 1 3 6 5 8 14 22 25 26 29 32 35 37 38 38 36 33 32 33 34 34 35 35 34 32 31 30 28 28 30 30 30 28 27 25 22 19 19 17 14 12 12 12 9 9 10 9 6 6 5 6 8 8 8 8 8 8 7 5 3 1 2 3 4 4 2 1 2 3 4 5 5 6 7 6 5 4 4
2 5 5 5 5 5 4 3 4 5 2 5 7 2 3 1 5 4 1 1 3 5 4 5 12 21 26 27 29 32 34 36 37 35 33 32 31 32 33 33 33 34 33 33 33 32 31 31 33 33 31 30 28 27 24 20 19 18 15 12 13 12 10 11 11 8 7 6 6 7 7 8 7 7 9 9 7 5 3 2 3 3 2 2 2 1 1 2 2 3 3 3 3 4 6 6 6
3 3 4 3 3 4 4 4 4 4 2 6 5 2 5 2 4 4 4 5 4 6 6 7 11 19 26 27 28 31 33 34 34 32 31 30 31 33 33 31 30 31 31 32 34 35 35 35 37 36 32 30 30 29 24 21 20 19 15 13 12 11 10 10 10 7 7 7 7 7 8 9 8 8 9 9 8 6 6 6 6 7 7 7 6 6 6 4 4 3 3 3 3 3 4 4 4
5 4 5 4 1 2 1 3 1 2 4 4 3 1 3 3 6 5 6 8 6 5 7 9 11 16 23 26 27 28 29 30 30 29 29 29 31 34 35 32 30 30 30 31 34 35 35 33 28 28 29 30 30 28 23 21 21 18 14 12 11 11 9 8 8 8 7 7 7 8 9 9 9 10 10 10 10 9 9 10 10 11 12 12 12 12 12 11 10 8 7 6 5 5 4 4 3
4 4 4 4 3 2 1 3 1 1 3 2 3 2 0 3 4 5 7 7 4 1 4 8 13 18 22 24 24 25 24 25 26 26 26 28 31 34 35 33 32 32 31 31 33 34 35 30 21 19 23 26 27 26 23 23 22 19 13 12 12 10 7 6 6 8 8 8 8 8 10 10 9 10 11 11 11 11 11 10 11 11 12 12 12 12 13 13 12 11 10 8 7 6 5 4 4
3 5 6 4 4 4 3 3 3 2 2 2 4 1 2 2 3 6 5 4 8 8 8 9 14 18 21 22 21 21 20 19 19 20 21 23 25 28 30 31 31 32 32 32 34 34 35 33 29 27 27 28 29 27 25 25 22 17 13 13 14 10 6 8 8 7 8 8 10 11 12 12 12 12 13 13 12 12 12 11 11 12 12 11 11 11 11 11 10 10 9 7 7 7 6 5 4
2 2 5 2 4 5 2 2 5 4 1 1 2 2 3 3 3 8 5 8 10 9 10 12 15 17 19 20 18 18 17 16 16 15 15 15 17 20 23 25 26 28 29 31 33 34 34 33 34 35 34 33 34 31 29 28 21 15 14 17 18 12 7 11 13 9 8 10 13 14 14 14 14 14 15 15 15 14 14 14 13 13 13 12 11 10 10 10 9 8 8 8 8 8 7 6 6
1 2 3 4 3 7 5 1 1 4 2 2 1 2 4 2 3 8 7 8 8 8 7 11 16 20 21 20 19 19 18 16 15 13 13 14 16 17 18 20 21 23 26 29 31 32 33 34 34 37 36 35 35 33 33 31 24 20 20 20 20 15 9 11 15 12 10 13 15 15 15 15 15 15 16 16 16 16 15 15 15 14 14 13 12 11 10 11 10 9 9 9 9 9 9 8 8
3 2 5 2 2 5 5 2 3 5 1 3 2 1 4 3 1 6 7 6 4 5 4 4 12 19 21 22 23 22 19 18 16 15 15 18 20 19 18 18 18 18 20 24 27 30 32 33 35 37 36 32 32 33 32 29 27 25 24 23 21 18 15 14 16 15 13 15 17 17 16 16 15 15 15 15 15 16 15 15 15 15 14 13 12 12 11 11 11 10 10 10 9 9 9 9 9
4 4 4 3 2 1 1 2 2 2 1 3 4 2 1 1 1 4 3 1 2 2 4 4 2 10 15 18 20 20 19 20 19 18 19 20 20 19 18 17 16 15 16 18 21 24 28 31 34 37 37 34 33 33 31 29 30 28 27 28 24 20 21 21 19 18 17 17 19 19 17 16 16 15 15 14 14 14 14 14 14 14 14 13 13 12 11 11 10 10 10 9 8 8 7 7 7
3 3 3 2 3 4 2 2 3 3 3 2 2 3 2 3 3 4 6 7 6 4 1 5 4 4 9 12 15 15 15 16 16 15 16 16 15 14 14 13 14 13 13 13 13 16 22 28 32 35 37 38 36 35 33 32 33 29 26 28 25 22 26 26 24 23 21 19 19 20 18 16 16 15 14 14 13 12 12 12 12 12 11 12 12 11 10 9 9 8 8 8 7 6 5 5 4
3 4 4 4 2 2 2 2 1 4 5 3 2 2 3 5 3 4 8 9 7 7 5 3 2 4 8 10 13 14 13 13 12 12 11 12 12 12 11 9 8 7 6 6 6 8 15 22 27 31 34 37 36 35 34 34 34 30 27 27 26 25 29 29 27 27 25 21 20 20 19 17 15 14 13 13 11 10 10 10 10 9 9 9 9 10 10 9 8 8 7 7 6 6 5 4 3
4 3 2 1 1 2 4 1 2 2 4 4 4 3 4 6 2 3 7 7 5 7 8 6 4 7 9 10 13 13 13 13 11 10 10 10 10 9 7 6 4 2 1 1 2 4 8 13 17 22 27 31 32 32 32 33 34 32 31 30 28 27 30 31 30 30 28 25 22 20 19 19 17 15 12 11 10 9 9 9 8 8 8 8 8 8 8 8 7 7 6 6 6 6 5 4 4
Wind_Direction
133 143 152 154 162 160 166 159 136 326 92 265 266 234 254 238 238 265 268 256 173 302 331 125 119 112 108 110 127 103 53 72 180 158 180 151 153 159 158 162 163 166 166 164 165 162 164 167 169 169 172 174 173 171 169 167 164 163 159 154 147 143 144 143 141 138 136 133 134 135 135 136 133 131 129 126 124 124 122 120 120 118 118 112 102 107 99 86 107 127 129 128 137 141 144 151 150
128 147 157 155 163 164 178 148 102 330 66 310 269 179 253 289 277 255 251 209 148 117 97 108 104 95 93 98 107 85 42 23 142 128 130 145 155 161 160 164 165 166 165 164 166 163 164 167 169 170 173 175 176 174 171 169 165 164 160 156 149 144 144 143 143 142 141 137 136 134 134 135 134 131 128 127 125 124 122 122 123 122 120 118 110 106 103 78 75 99 114 119 131 140 143 148 149
129 154 162 166 164 150 140 96 81 124 105 240 265 225 263 298 247 262 250 168 143 125 106 104 94 87 87 72 53 65 66 57 119 127 135 154 161 161 163 167 166 167 165 165 166 163 164 166 169 172 174 176 176 174 171 169 166 165 161 157 151 146 145 146 146 147 146 144 142 138 137 135 135 132 129 128 127 127 123 123 121 123 123 118 115 110 112 101 88 86 93 104 120 137 139 143 148
145 161 162 169 156 127 99 74 138 129 160 217 272 262 242 243 255 316 305 160 148 140 130 122 83 76 95 96 93 86 112 130 136 138 147 162 164 161 163 167 168 168 165 165 166 163 163 166 170 174 174 176 176 174 172 169 168 165 163 160 154 149 146 146 146 147 148 147 147 144 142 140 139 135 133 131 131 134 126 126 124 124 125 121 122 120 121 117 122 106 72 81 108 132 133 136 147
172 172 170 161 138 128 92 101 125 129 207 195 230 258 241 234 287 0 24 180 171 166 179 151 97 87 94 101 121 123 142 149 149 149 155 163 165 164 164 168 169 167 165 164 165 164 164 167 171 175 174 174 174 172 172 170 169 167 165 163 158 153 147 145 144 144 146 146 146 146 145 142 139 135 134 135 135 142 135 128 129 124 123 129 131 128 131 127 142 137 57 58 91 130 137 140 150
169 172 177 163 113 134 112 144 180 208 224 166 177 269 271 255 286 340 96 199 204 208 243 140 118 113 90 77 101 140 142 152 161 159 158 161 166 166 165 169 169 167 166 163 165 166 166 169 172 173 173 172 171 170 171 171 169 168 167 167 162 155 148 143 141 141 142 143 143 142 141 137 132 129 127 128 129 135 139 134 138 138 134 143 145 138 148 148 157 169 70 61 81 134 150 147 151
169 176 179 157 54 72 125 184 206 227 239 179 188 272 283 279 291 305 299 190 183 206 191 119 117 111 86 79 100 138 153 169 162 158 157 158 161 162 164 169 168 166 165 164 165 168 168 169 171 172 172 170 169 169 169 170 169 168 168 169 163 155 148 142 140 139 140 139 138 136 133 131 128 127 124 122 120 122 128 131 137 145 149 159 168 163 167 182 189 194 157 97 83 138 160 153 152
163 172 151 128 39 28 120 215 227 220 245 236 218 252 270 276 280 284 264 220 181 152 135 123 108 93 93 127 107 159 185 174 157 155 154 154 157 162 167 169 167 166 165 165 166 169 168 168 170 171 170 169 167 167 168 168 167 168 169 167 163 156 149 143 141 138 137 136 133 131 129 128 127 126 123 118 117 118 121 124 128 136 149 158 172 176 177 199 207 203 183 130 95 140 169 161 158
155 166 136 116 141 18 324 269 267 234 253 265 255 258 266 271 271 260 227 254 165 135 134 148 109 97 135 118 116 161 169 165 156 152 152 153 159 164 168 169 168 166 165 167 169 170 168 167 170 169 168 166 164 165 166 166 166 167 166 165 162 155 150 144 141 138 136 133 130 128 127 125 123 121 118 114 115 119 121 122 126 132 143 153 164 169 176 198 210 208 203 180 128 143 178 173 165
136 149 130 92 114 325 291 293 279 254 256 265 282 273 276 277 269 249 212 212 135 122 126 165 125 120 128 112 117 156 165 165 157 150 153 158 162 166 168 170 171 169 166 168 171 170 166 166 169 169 165 162 162 163 164 164 164 164 164 163 160 155 152 146 141 138 134 131 128 126 125 121 118 116 113 111 113 118 121 121 125 131 139 151 161 168 181 195 202 205 205 198 164 152 179 185 174
101 121 103 82 81 238 243 266 268 268 276 292 297 281 292 294 256 209 165 147 121 123 124 119 110 117 114 101 117 150 162 162 159 152 154 161 164 168 168 171 175 174 169 168 171 170 165 165 168 168 163 160 159 158 159 161 161 160 161 161 158 156 152 146 141 136 132 130 128 126 123 119 115 114 113 111 113 117 118 119 124 132 139 146 156 166 175 174 164 148 143 157 157 158 173 188 182
94 53 80 99 151 204 209 232 265 288 297 304 289 290 316 335 205 153 139 137 133 138 133 123 133 127 101 74 131 146 158 162 165 156 153 160 165 170 171 173 176 175 171 170 172 170 165 165 168 164 160 158 155 154 155 156 158 158 159 159 157 154 149 144 139 134 131 128 126 125 124 121 119 118 117 114 113 113 113 115 117 126 135 141 150 160 165 158 143 114 102 112 138 161 169 183 186
167 150 91 133 198 172 181 214 275 311 306 278 250 303 327 359 175 164 147 138 143 144 147 148 145 131 97 130 142 152 162 165 166 160 153 156 163 172 176 176 176 175 172 172 172 171 167 166 166 161 160 158 154 153 154 154 156 156 155 155 153 149 144 141 137 133 132 128 126 127 130 131 130 127 123 121 113 111 113 110 109 119 128 139 145 153 162 159 149 129 113 106 126 158 167 177 185
189 177 119 188 250 138 168 222 296 316 281 281 293 322 330 1 179 169 134 114 142 155 152 153 147 124 110 135 150 168 168 166 166 164 156 150 160 171 177 178 177 176 174 172 173 173 169 167 165 162 161 158 156 155 155 155 154 152 152 153 149 144 142 141 139 137 136 133 134 138 141 142 141 139 134 132 119 111 113 105 101 117 133 144 148 152 165 168 161 152 131 113 121 154 166 172 182
218 234 105 140 304 130 199 222 198 218 262 291 319 327 330 12 152 159 128 117 84 148 144 152 153 128 160 166 180 181 172 166 167 166 157 150 157 167 175 178 177 177 176 175 176 177 171 168 167 164 162 159 159 158 157 155 150 149 150 148 144 143 145 145 144 143 142 143 147 149 151 154 156 156 151 145 120 94 107 121 118 135 160 160 162 163 177 184 169 157 139 118 121 151 164 170 180
235 268 73 116 269 160 217 228 171 216 264 276 319 339 349 12 96 108 104 136 128 144 143 158 171 175 176 176 185 178 167 164 167 165 161 156 160 166 173 177 179 179 179 179 179 178 173 170 169 165 162 160 160 160 157 151 148 150 148 146 146 146 148 149 150 148 148 149 150 155 160 163 164 163 157 154 157 192 211 246 237 236 226 198 186 182 190 200 186 164 145 124 122 150 164 170 178
232 210 80 263 232 165 202 212 141 175 269 287 325 353 24 0 49 66 79 127 133 152 153 172 192 237 183 185 183 169 160 162 165 165 165 163 167 170 175 177 180 181 181 182 181 179 176 173 171 166 161 160 161 160 155 149 151 153 149 151 151 148 149 150 152 149 152 153 151 161 168 164 171 168 159 177 191 201 217 241 247 254 243 216 201 191 193 203 195 174 154 136 130 152 165 169 175
199 124 148 234 207 192 194 198 207 194 274 299 318 342 34 6 52 103 104 109 123 143 124 160 191 211 184 187 170 162 159 162 165 168 168 169 172 173 176 178 180 183 184 185 183 181 179 176 173 167 162 161 162 158 152 150 153 154 154 154 149 149 153 151 152 156 162 166 163 169 171 168 184 171 156 193 198 205 222 229 230 241 239 223 212 203 202 202 194 183 166 146 142 157 166 168 173
183 125 183 229 200 211 212 216 255 244 277 298 307 325 6 15 46 145 125 102 117 110 78 114 132 139 164 171 161 162 162 163 167 169 169 170 174 175 174 176 179 182 186 187 186 183 181 179 174 167 164 163 162 157 152 152 155 160 160 152 146 154 158 155 161 174 175 180 175 169 173 179 195 172 162 197 185 195 218 221 211 205 220 221 215 212 209 202 195 188 170 152 151 160 164 165 171
199 180 225 244 213 227 248 243 256 263 277 294 304 313 324 12 353 167 127 109 130 150 143 128 135 142 155 164 163 165 164 165 169 169 169 171 175 178 175 175 178 180 183 189 190 187 184 180 174 169 165 164 164 159 152 152 160 168 165 150 151 161 161 167 181 187 179 188 184 169 174 182 195 177 175 196 178 192 214 215 199 191 206 212 213 213 209 201 193 192 176 156 154 158 160 163 171
200 184 209 240 193 220 260 252 256 267 276 275 288 303 305 354 128 163 127 110 299 225 182 169 163 157 158 164 165 166 167 167 170 171 171 172 176 180 180 179 179 179 177 188 196 190 186 181 175 169 165 166 165 154 148 155 166 172 166 155 160 166 166 176 194 203 185 183 187 172 176 185 199 186 182 196 185 199 214 213 204 197 201 204 208 210 208 201 196 200 180 158 153 155 158 161 169
222 222 230 244 196 222 267 265 268 270 273 271 281 293 289 322 153 161 151 157 236 218 194 181 174 169 167 167 167 168 170 171 173 178 177 175 177 176 178 180 180 179 176 185 193 191 186 179 174 168 166 170 158 141 146 154 167 175 169 167 169 168 170 180 195 213 200 179 187 182 183 194 205 198 197 210 206 208 212 211 208 207 206 204 206 209 207 195 193 201 178 158 152 151 155 159 168
231 268 252 257 242 232 270 274 270 272 280 268 241 263 275 311 321 172 179 210 247 227 197 184 179 175 172 169 170 172 175 177 180 184 182 179 178 174 176 177 179 178 177 183 189 187 181 173 169 168 172 171 152 143 151 153 168 176 173 176 175 168 170 181 190 208 209 186 189 194 198 208 206 204 209 218 219 211 211 212 206 206 207 204 205 202 196 185 182 188 173 160 150 145 148 153 164
213 267 266 267 262 249 267 271 264 268 274 267 257 269 271 274 298 201 205 248 266 243 199 181 175 171 169 168 170 174 177 180 183 185 187 186 182 178 177 176 178 176 176 183 182 171 168 168 165 168 173 167 155 157 158 158 172 175 178 181 178 176 175 182 187 196 208 209 210 206 212 222 213 207 211 219 221 208 207 214 210 203 202 202 200 188 177 174 176 179 172 163 151 144 146 150 160
210 242 258 267 269 263 269 271 264 264 261 265 272 271 269 264 246 243 282 296 268 213 190 177 169 167 166 167 169 174 177 180 183 186 189 191 186 182 177 175 175 173 175 176 167 161 163 164 163 171 173 163 160 164 163 171 176 175 186 188 186 187 183 190 199 204 209 219 231 228 226 231 226 220 219 224 224 212 200 206 215 210 204 203 194 179 170 165 170 176 173 168 158 155 156 157 161
211 226 253 267 271 271 273 269 259 258 251 255 262 264 271 260 197 262 305 294 186 176 176 171 166 166 166 168 171 175 177 180 184 188 191 191 187 183 178 177 174 173 177 169 161 164 165 163 166 174 170 161 167 167 167 178 183 189 195 195 195 191 193 205 213 222 223 224 233 236 236 238 236 233 229 223 216 211 201 201 217 217 209 206 192 176 171 166 170 176 175 174 172 171 169 169 169
260 248 264 267 268 273 273 264 248 237 240 242 226 245 262 215 169 265 232 174 174 166 164 165 164 166 170 172 173 176 179 182 188 191 193 192 187 186 187 187 183 177 175 166 166 170 167 166 170 175 167 165 175 169 162 172 186 201 205 207 206 200 208 217 215 224 228 230 234 233 234 236 237 236 233 229 218 216 215 208 219 217 210 207 193 181 178 173 174 178 179 181 184 181 178 177 177
296 297 292 278 277 280 270 254 238 217 232 237 214 232 266 161 171 230 195 174 173 164 156 161 165 169 174 175 175 178 181 186 192 195 196 192 188 190 194 195 193 185 170 170 180 181 174 168 166 173 175 174 175 168 162 168 181 196 211 221 218 212 221 232 234 235 230 227 230 227 228 229 231 233 232 232 227 226 227 217 216 214 214 211 199 192 189 183 181 185 188 191 194 193 189 186 186
295 302 298 294 325 308 262 232 216 188 206 227 184 260 300 200 217 222 182 169 165 156 151 159 167 172 176 176 177 179 184 191 196 200 198 191 191 196 195 193 189 181 169 175 190 189 181 169 163 172 176 174 170 164 161 165 178 190 203 209 206 217 232 247 247 247 240 233 232 229 231 228 224 230 230 228 226 229 231 219 211 210 212 211 203 201 197 191 190 192 195 198 204 205 201 202 206
299 318 150 299 353 322 259 225 205 177 205 208 153 284 280 248 254 213 169 165 158 149 154 164 168 174 176 176 178 182 187 194 197 199 196 193 197 198 191 189 186 178 170 170 179 191 184 164 161 168 166 167 164 162 165 171 187 195 201 207 211 224 233 242 246 253 255 252 245 235 236 230 222 226 228 228 225 228 235 224 211 206 205 206 204 203 200 196 195 196 198 199 203 207 209 215 220
318 0 55 338 341 284 287 300 213 194 240 196 152 244 257 260 270 185 169 170 160 152 160 168 170 175 176 177 181 184 187 192 195 193 192 196 200 196 190 187 184 177 172 167 162 179 183 161 163 168 161 162 164 172 184 188 205 212 219 235 245 254 255 258 259 259 259 255 247 238 236 230 224 224 224 227 227 229 237 223 207 199 200 206 206 204 204 202 201 202 205 204 204 208 213 220 225
8 6 321 334 186 268 303 293 209 207 249 176 147 236 267 272 245 171 170 172 162 155 163 171 175 176 178 181 182 183 186 188 189 187 190 196 198 196 193 187 183 176 170 165 157 162 173 169 174 172 164 167 172 181 195 202 216 214 219 244 267 270 255 259 254 253 253 243 239 238 235 229 225 224 221 224 230 234 231 214 204 198 198 210 210 209 210 207 210 213 216 219 220 219 221 222 225
1 87 243 280 267 294 315 304 237 199 207 211 183 218 268 284 227 171 172 171 161 154 164 175 178 178 180 184 185 185 186 187 187 187 192 195 196 197 193 188 186 177 166 163 160 158 163 171 180 175 169 172 174 179 192 205 206 202 218 179 175 158 145 248 248 245 247 240 242 241 233 226 225 227 223 224 232 237 229 215 211 205 204 214 214 213 214 213 218 221 224 230 231 231 232 228 226
312 12 237 254 247 274 291 303 287 191 172 222 221 220 234 264 345 171 177 172 162 158 169 177 179 180 182 185 187 188 188 190 189 189 194 197 197 196 195 192 186 177 167 166 167 162 162 174 182 177 169 170 175 179 190 204 193 188 213 211 228 207 147 224 255 254 246 235 241 242 232 222 223 228 225 225 229 229 224 216 218 219 220 223 220 219 218 217 220 225 232 237 237 236 237 237 233
226 285 324 299 285 261 255 272 288 257 205 194 184 236 246 264 344 173 182 176 169 169 171 175 178 181 184 188 190 191 193 195 191 189 194 197 194 192 192 190 183 176 170 169 169 166 168 179 182 177 170 170 180 186 193 207 200 192 204 213 230 224 172 142 149 304 263 228 226 231 226 213 217 226 222 221 225 225 222 216 219 228 231 228 228 235 230 225 226 231 237 240 241 239 237 238 238
179 207 215 272 284 270 254 250 255 259 265 219 178 217 250 264 10 156 181 182 176 169 165 168 177 183 186 189 191 193 197 198 195 191 193 194 190 185 185 184 178 174 172 172 169 170 177 181 182 182 178 178 184 187 189 192 189 191 199 202 203 201 180 152 155 11 233 211 205 204 204 201 210 217 210 214 221 224 226 224 222 228 235 233 235 242 237 232 233 236 239 239 239 239 238 238 242
181 239 247 261 270 275 272 269 276 217 209 246 195 205 263 261 167 153 176 182 175 159 159 168 177 185 188 188 191 195 199 201 200 196 193 193 189 184 185 183 177 174 176 174 172 176 184 183 181 183 182 183 186 182 177 171 169 176 186 193 195 189 182 305 298 302 177 193 195 192 193 196 204 199 192 200 207 215 227 235 234 233 237 235 232 234 234 236 238 241 242 240 237 234 236 240 244
221 245 255 268 248 265 274 281 304 259 168 296 159 166 267 259 206 171 168 171 187 176 166 173 181 186 188 189 192 196 199 203 205 199 193 192 188 186 189 186 182 180 177 175 177 183 187 183 181 180 178 181 184 181 171 162 162 169 180 188 187 174 182 299 332 352 167 180 185 186 187 186 190 188 184 188 195 201 213 223 227 231 234 233 232 233 235 240 242 243 242 240 239 235 235 238 238
203 214 225 272 255 282 296 295 323 349 159 292 113 141 252 266 279 280 186 179 198 192 180 178 180 182 187 191 193 195 199 205 205 198 192 189 187 188 192 189 186 182 177 178 185 189 186 183 181 178 176 177 181 180 169 161 167 177 184 186 183 169 174 217 333 16 150 172 178 182 186 182 182 186 187 192 196 198 201 211 223 234 241 241 240 238 237 241 241 243 245 244 244 240 236 236 233
172 207 217 275 274 289 294 298 329 350 50 184 124 120 287 302 347 246 207 195 199 192 186 183 181 184 188 191 192 193 197 201 201 196 191 190 188 191 195 192 187 183 181 186 191 193 189 186 183 178 175 175 178 177 169 169 175 181 187 185 186 183 168 180 182 129 151 172 183 187 200 203 205 210 210 213 215 215 218 223 235 241 241 234 227 229 234 238 239 243 249 252 252 249 245 242 237
266 229 203 219 258 234 230 291 329 343 12 78 89 60 325 324 339 313 265 164 183 176 173 178 186 192 193 192 191 193 195 197 197 195 192 192 192 195 198 195 189 186 188 192 193 195 196 190 184 179 176 174 178 176 171 178 181 179 188 190 194 203 192 188 191 174 170 177 186 193 209 220 228 231 228 229 225 225 231 230 238 241 231 222 213 217 224 226 231 236 240 244 248 251 247 243 240
295 248 209 204 214 243 266 323 8 25 2 349 70 60 295 311 319 289 319 79 135 163 167 177 187 193 198 198 195 194 196 197 197 196 194 195 197 198 198 197 193 191 194 195 197 203 205 195 187 183 181 179 182 180 176 184 189 188 195 196 200 213 213 208 213 200 191 192 198 205 213 216 223 220 205 196 189 195 208 206 210 227 220 216 208 199 197 198 210 219 222 226 233 240 237 241 247
299 243 204 187 161 215 282 353 59 78 283 287 70 116 247 313 299 259 307 76 137 165 174 181 186 190 197 200 197 195 196 199 199 198 197 198 199 198 199 199 198 198 200 201 204 210 209 201 193 189 188 188 191 189 183 186 195 202 209 216 220 230 233 218 187 186 192 196 202 203 200 196 201 203 189 175 167 170 180 181 176 174 186 197 188 169 163 171 185 189 194 205 218 227 228 240 256
235 233 159 132 132 210 234 99 94 211 237 315 8 97 139 308 266 265 320 57 132 167 174 188 192 194 199 199 199 197 197 199 201 201 200 201 201 201 202 201 201 202 205 207 211 211 210 207 202 197 196 196 198 199 192 189 198 206 213 225 231 233 246 223 176 169 175 182 189 190 190 193 197 204 206 191 169 163 168 164 138 122 134 147 146 132 118 105 102 116 132 148 174 212 224 232 244
241 213 140 137 152 173 147 98 95 330 40 330 326 36 95 276 277 298 340 102 223 223 193 194 197 198 199 198 200 200 200 201 202 203 203 203 204 205 205 202 201 204 207 213 214 210 209 212 212 206 202 203 203 203 199 194 200 208 216 227 230 230 233 208 177 173 172 171 179 183 188 194 192 192 195 185 170 165 163 152 117 116 124 127 125 111 76 67 85 91 85 75 71 70 74 253 267
236 150 103 62 72 71 65 86 92 41 52 263 280 340 108 267 290 312 352 114 256 257 223 203 201 200 200 199 200 201 202 203 203 204 205 206 206 207 208 206 204 206 209 215 215 212 212 216 218 212 207 208 206 204 203 197 199 207 215 225 227 227 220 198 183 178 172 171 175 178 178 181 177 164 159 160 160 165 161 121 97 118 127 123 119 95 49 64 87 90 78 66 66 71 68 57 49
155 113 75 39 31 32 33 51 74 57 14 255 257 244 136 256 289 272 262 240 219 240 255 217 202 203 202 200 200 201 203 204 204 205 207 208 207 208 212 212 210 212 213 216 216 215 216 218 220 215 210 211 210 207 205 200 200 205 212 221 226 228 218 200 193 183 177 182 179 176 171 168 168 158 151 153 154 156 144 104 86 101 116 112 104 95 90 97 96 96 91 76 75 77 76 73 74
95 97 83 75 351 15 24 354 45 80 262 260 259 225 123 149 265 258 261 269 227 209 220 209 199 201 200 199 200 201 203 204 203 205 208 209 208 210 214 215 215 217 217 219 220 221 223 223 222 215 204 200 200 200 201 199 201 205 211 222 227 228 219 207 204 194 186 191 185 175 167 160 157 156 154 151 148 139 124 110 101 103 107 107 106 105 110 117 119 131 142 135 119 102 99 101 100
83 85 83 97 357 15 15 306 12 157 236 258 267 247 124 206 250 259 268 281 273 221 208 206 196 188 188 191 195 198 200 203 204 205 207 210 211 211 214 216 217 219 221 223 224 224 222 217 213 203 193 192 193 193 197 200 201 203 208 223 230 227 221 211 206 203 198 194 187 173 165 162 154 148 145 141 136 128 118 113 108 108 110 109 108 106 105 104 105 108 112 114 110 104 110 117 122
130 127 121 129 108 82 240 262 307 244 236 255 278 268 219 271 279 263 258 282 309 135 161 185 180 172 176 182 187 192 196 200 203 205 207 212 214 212 214 218 219 221 224 225 225 224 220 217 215 209 205 206 202 198 203 202 199 199 202 220 230 223 220 224 216 206 204 193 177 161 151 151 146 137 134 133 130 128 125 122 117 114 114 115 114 111 107 104 103 102 102 107 110 109 112 115 120
173 154 133 147 153 145 202 218 187 215 230 274 298 285 172 210 300 290 278 8 43 70 95 132 148 154 164 170 174 180 186 191 198 204 207 211 215 215 218 222 222 223 225 226 226 227 227 229 232 230 222 208 198 200 205 200 193 192 197 211 216 209 210 231 235 217 206 190 164 153 145 140 138 131 129 129 128 128 129 125 122 120 117 119 119 114 111 107 102 100 99 102 106 104 104 109 113
258 132 108 152 182 148 128 174 172 166 154 301 288 240 210 205 303 324 4 52 46 58 84 100 112 126 139 146 151 158 164 171 183 194 202 208 215 219 223 225 224 223 224 226 229 229 230 232 232 233 228 210 198 200 199 195 190 185 193 204 205 207 217 227 234 230 208 188 164 152 147 140 137 132 127 125 124 125 125 123 122 122 120 120 120 116 112 106 100 97 95 94 96 94 92 96 96
235 107 154 216 173 119 109 150 90 76 102 262 264 259 298 327 338 338 15 50 31 30 69 97 109 117 122 127 136 143 147 158 170 181 198 215 222 221 223 226 227 227 227 228 231 231 230 232 232 232 229 214 202 197 192 195 196 185 188 200 204 213 225 222 228 232 213 192 174 160 156 152 146 140 132 126 123 121 120 119 118 119 120 121 120 117 113 108 104 99 94 93 92 92 93 93 90
123 166 189 191 69 89 105 110 24 47 122 270 338 323 314 14 9 329 7 54 36 2 9 87 118 122 126 134 145 152 157 166 176 183 198 216 221 220 220 223 228 231 233 233 234 235 234 235 234 232 228 216 201 192 189 198 203 189 186 198 207 218 228 223 223 225 218 201 183 170 167 163 157 152 144 135 130 125 121 119 117 116 116 117 115 112 108 106 104 99 95 92 88 87 89 92 92
129 174 159 107 103 147 90 113 122 98 169 282 334 346 322 72 287 306 336 162 214 298 332 326 88 118 127 136 143 150 159 168 175 181 192 205 212 215 218 219 222 228 236 239 239 240 240 239 237 232 229 224 212 203 203 208 207 197 192 197 205 217 224 227 228 225 220 210 193 180 176 171 166 164 161 153 145 137 131 128 125 123 121 120 118 114 111 108 106 105 103 100 96 91 87 85 86
22 58 39 48 130 152 156 140 146 141 153 222 329 9 321 248 234 246 261 255 229 198 239 300 311 95 118 127 129 137 148 155 163 171 180 189 194 200 204 208 214 217 221 227 230 237 241 240 234 229 229 231 226 221 221 218 209 204 201 200 208 218 220 224 232 230 223 216 205 193 185 181 176 171 167 163 157 151 146 141 138 136 134 133 131 128 127 124 121 120 118 117 117 114 108 100 91
11 42 16 345 27 109 137 107 100 129 138 171 136 62 286 260 219 233 267 266 233 188 176 238 272 108 115 120 121 130 138 142 155 166 174 183 182 178 177 181 193 194 192 199 194 207 230 236 233 232 233 234 231 227 226 220 212 214 216 211 217 225 221 220 229 232 227 220 216 209 201 198 194 185 178 171 162 156 153 150 146 144 141 141 141 140 141 141 142 142 139 136 137 138 139 137 136
104 92 45 284 199 128 124 113 304 108 121 161 145 130 264 272 295 312 293 274 230 178 163 166 160 135 128 128 128 134 138 140 148 156 163 173 166 152 149 150 163 178 175 179 157 178 211 228 233 236 237 236 236 235 230 223 218 222 225 223 227 229 222 219 225 232 232 225 221 219 215 214 212 205 197 189 178 165 158 157 153 150 150 149 147 148 149 150 154 161 166 168 167 166 167 164 165